Regional Weather Roundup
Issued by NWS

Current Version | Previous Version | Text Only | Print | Product List | Glossary On
Versions: 1 2 3 4 5 6 7 8 9 10 11 12 13 14 15 16 17 18 19 20 21 22 23 24 25 26 27 28 29 30 31 32 33 34 35 36 37 38 39 40 41 42 43 44 45 46 47 48 49 50
000
ASUS45 KPSR 212110
RWRAZ

ARIZONA HOURLY REGIONAL WEATHER ROUNDUP
NATIONAL WEATHER SERVICE PHOENIX AZ
200 PM MST SUN JAN 21 2018

NOTE: FAIR INDICATES FEW OR NO CLOUDS BELOW 12,000 FEET WITH NO
SIGNIFICANT WEATHER AND/OR OBSTRUCTIONS TO VISIBILITY.

AZZ001>003-036-212200-
NORTHWEST ARIZONA

CITY           SKY/WX    TMP DP  RH WIND       PRES   REMARKS
BULLHEAD CITY  SUNNY     57  10  15 N22G29    30.26F
KINGMAN        SUNNY    N/A N/A N/A NW14      30.23S
$$

AZZ004>008-015-016-018-212200-
NORTH CENTRAL ARIZONA

CITY           SKY/WX    TMP DP  RH WIND       PRES   REMARKS
GRAND CANYON   SUNNY     31  11  43 W13G21    30.08S WCI  21
WILLIAMS       SUNNY     27  14  59 NW12      30.09S WCI  16
PRESCOTT       SUNNY     37  19  48 N12       30.14F WCI  29
FLAGSTAFF      SUNNY     28  10  46 SW12      30.06S WCI  18
PAYSON         SUNNY     34  19  55 W6        30.11F WCI  29
PAGE           SUNNY     44   5  20 NW18G31   30.06S
$$

AZZ009>014-017-212200-
NORTHEAST ARIZONA

CITY           SKY/WX    TMP DP  RH WIND       PRES   REMARKS
WINSLOW        SUNNY     42  10  27 NW12G23   30.08S
SAINT JOHNS    MOSUNNY   34  16  47 W23G30    30.05S WCI  22
WINDOW ROCK    CLOUDY    30  16  56 NW14G20   29.96S WCI  19
SHOW LOW       SUNNY     28  14  54 NW12      30.09R WCI  18
$$

AZZ540-542>544-546-548-212200-
GREATER PHOENIX AREA

CITY           SKY/WX    TMP DP  RH WIND       PRES   REMARKS
PHOENIX        MOSUNNY   55  20  25 W10G16    30.18F
BUCKEYE        SUNNY     57  10  15 NW14G22   30.20F
GLENDALE       SUNNY     57  18  21 W12       30.20F
LUKE AFB       SUNNY     57  17  21 W7        30.17F
DEER VALLEY    SUNNY     52  19  27 MISG      30.17F
SCOTTSDALE     SUNNY     54  21  27 VRB6      30.18F
MESA-FALCON    MOSUNNY   54  19  26 W13       30.18F
MESA-GATEWAY   MOSUNNY   55  18  22 W13       30.19
CHANDLER       SUNNY     55  16  21 NW9       30.19F
$$

AZZ539-553-212200-
SOUTHWEST MARICOPA COUNTY AND PINAL COUNTY

CITY           SKY/WX    TMP DP  RH WIND       PRES   REMARKS
CASA GRANDE    NOT AVBL
GILA BEND      FAIR      58  14  18 NW9       30.20F
$$

AZZ503-504-507>509-212200-
SOUTHEAST ARIZONA

CITY           SKY/WX    TMP DP  RH WIND       PRES   REMARKS
TUCSON         SUNNY     52  15  23 NW8       30.18F
DAVIS-MONTHAN  SUNNY     51  19  28 NW10      30.16F
RYAN FIELD     SUNNY     52  18  25 NW10      30.19F
NOGALES        SUNNY     51   1  13 W12G17    30.13F
SIERRA VISTA   SUNNY     47   6  19 NW17      30.13F
DOUGLAS        SUNNY     50   3  14 NW14      30.10F
SAFFORD        SUNNY     50  19  29 NW21G32   30.09F
$$

AZZ532-212200-
SOUTHWEST ARIZONA

CITY           SKY/WX    TMP DP  RH WIND       PRES   REMARKS
YUMA           SUNNY     62  13  14 N9        30.24F
$$

CAZ041-043-047-048-061-525>527-560>570-212200-
SOUTHERN CALIFORNIA

CITY           SKY/WX    TMP DP  RH WIND       PRES   REMARKS
DOWNTOWN L.A.  SUNNY     61  25  25 CALM      30.26F
L.A. AIRPORT   PTSUNNY   62  30  29 W3        30.27F
SAN DIEGO      PTSUNNY   62  39  42 NW7       30.28F
BURBANK        SUNNY     59  23  25 VRB3      30.26F
ONTARIO        PTSUNNY   59  21  23 W3        30.25F
RIVERSIDE      PTSUNNY   60  25  26 W7        30.24F
PALM SPRINGS   SUNNY     64  15  15 S6        30.26F
EL CENTRO NAS  SUNNY     64  15  15 NE6       30.28F
IMPERIAL       SUNNY     64  17  16 N12       30.26F
BLYTHE         SUNNY     60  13  15 N10G18    30.25F
NEEDLES        SUNNY     60  11  14 NE18G26   30.26F
$$

NVZ020-UTZ003-212200-
SOUTHERN NEVADA-UTAH

CITY           SKY/WX    TMP DP  RH WIND       PRES   REMARKS
LAS VEGAS      MOSUNNY   52  13  21 NE9       30.26F
SALT LAKE CITY MOSUNNY   37  21  52 NW10      30.21R WCI  30
$$

NMZ009-TXZ055-212200-
NEW MEXICO-WEST TEXAS

CITY           SKY/WX    TMP DP  RH WIND       PRES   REMARKS
ALBUQUERQUE    PTSUNNY   38  12  34 NW21      29.87R WCI  28
EL PASO        MOSUNNY   51   8  17 W29G36    29.97F
$$


........................KEY........................
SKY/WX - SKY CONDITION/WEATHER
TMP    - TEMPERATURE IN FAHRENHEIT
DP     - DEW POINT IN FAHRENHEIT
RH     - RELATIVE HUMIDITY IN PERCENT
WIND   - DIRECTION AND SPEED IN MILES PER HOUR (MPH)
VRB    - VARIABLE WIND DIRECTION
PRES   - MEAN SEA LEVEL PRESSURE IN INCHES OF MERCURY
         F - FALLING PRESSURE   R - RISING PRESSURE
         S - STEADY PRESSURE
VSB    - VISIBILITY IN MILES
HX     - HEAT INDEX IN FAHRENHEIT
WCI    - WIND CHILL INDEX IN FAHRENHEIT
TC     - TEMPERATURE IN CELSIUS WHICH IS ALSO KNOWN AS
         TEMPERATURE IN CENTIGRADE
AFB    - AIR FORCE BASE
         LUKE AFB IS LUKE AIR FORCE BASE
         DAVIS-MONTHAN IS DAVIS-MONTHAN AIR FORCE BASE
NAS    - NAVAL AIR STATION
         EL CENTRO NAS IS EL CENTRO NAVAL AIR STATION
N/A    - NOT AVAILABLE




USA.gov is the U.S. government's official web portal to all federal, state and local government web resources and services.